Location: Bushrod
(6.3500°N, 10.7833°W)
Time: 12:38:53
(UTC+00:00)

COSMOS 2455 - Pass Details

Date: 17 September 2019
Orbit: 900 x 909 km, 67.1° (Epoch: 20 October)

Event Time Altitude Azimuth Distance (km) Brightness Sun altitude
Rises 20:04:45 0° 0° (N) 3,520 6.0 -21.4°
Reaches altitude 10° 20:07:38 10° 12° (NNE) 2,579 5.1 -22.1°
Enters shadow 20:10:17 21° 34° (NE) 1,892 4.2 -22.7°
